2024/01/11 00:00:00,13.9,-0.9
2024/01/11 00:10:00,13.9,-0.9
2024/01/11 00:20:00,13.8,-1.4
2024/01/11 00:30:00,13.8,-1.2
2024/01/11 00:40:00,13.8,-1.2
2024/01/11 00:50:00,13.8,-1.2
2024/01/11 01:00:00,13.8,-1.0
2024/01/11 01:10:00,13.7,-1.2
2024/01/11 01:20:00,13.7,-1.2
2024/01/11 01:30:00,13.7,-1.0
2024/01/11 01:40:00,13.7,-0.9
2024/01/11 01:50:00,13.7,-1.0
2024/01/11 02:00:00,13.6,-1.2
2024/01/11 02:10:00,13.6,-1.1
2024/01/11 02:20:00,13.6,-1.2
2024/01/11 02:30:00,13.6,-1.4
2024/01/11 02:40:00,13.5,-1.6
2024/01/11 02:50:00,13.5,-1.7
2024/01/11 03:00:00,13.5,-1.9
2024/01/11 03:10:00,13.5,-1.7
2024/01/11 03:20:00,13.5,-1.9
2024/01/11 03:30:00,13.4,-1.9
2024/01/11 03:40:00,13.4,-1.8
2024/01/11 03:50:00,13.4,-1.5
2024/01/11 04:00:00,13.4,-1.6
2024/01/11 04:10:00,13.3,-1.5
2024/01/11 04:20:00,13.3,-1.6
2024/01/11 04:30:00,13.3,-1.5
2024/01/11 04:40:00,13.3,-1.7
2024/01/11 04:50:00,13.3,-1.5
2024/01/11 05:00:00,13.3,-1.4
2024/01/11 05:10:00,13.3,-1.5
2024/01/11 05:20:00,13.3,-1.4
2024/01/11 05:30:00,13.2,-1.6
2024/01/11 05:40:00,13.3,-1.6
2024/01/11 05:50:00,13.2,-1.5
2024/01/11 06:00:00,13.2,-1.2
2024/01/11 06:10:00,13.2,-1.2
2024/01/11 06:20:00,13.2,-1.3
2024/01/11 06:30:00,13.2,-1.3
2024/01/11 06:40:00,13.2,-1.2
2024/01/11 06:50:00,13.1,-1.1
2024/01/11 07:00:00,13.1,-1.2
2024/01/11 07:10:00,13.1,-1.6
2024/01/11 07:20:00,13.1,-1.2
2024/01/11 07:30:00,13.1,-1.3
2024/01/11 07:40:00,13.1,-1.0
2024/01/11 07:50:00,13.1,-0.9
2024/01/11 08:00:00,13.1,-0.9
2024/01/11 08:10:00,13.1,-1.1
2024/01/11 08:20:00,13.1,-0.9
2024/01/11 08:30:00,13.1,-0.6
2024/01/11 08:40:00,13.1, 0.5
2024/01/11 08:50:00,13.1, 0.9
2024/01/11 09:00:00,13.1, 2.3
2024/01/11 09:10:00,13.1, 4.0
2024/01/11 09:20:00,13.1, 5.5
2024/01/11 09:30:00,13.1, 7.7
2024/01/11 09:40:00,13.1, 5.8
2024/01/11 09:50:00,13.1, 6.7
2024/01/11 10:00:00,13.1, 6.0
2024/01/11 10:10:00,13.1, 6.8
2024/01/11 10:20:00,13.1, 7.7
2024/01/11 10:30:00,13.0, 9.2
2024/01/11 10:40:00,13.1,10.6
2024/01/11 10:50:00,13.1,12.2
2024/01/11 11:00:00,13.1,11.4
2024/01/11 11:10:00,12.9,10.6
2024/01/11 11:20:00,13.0,12.1
2024/01/11 11:30:00,12.8, 9.7
2024/01/11 11:40:00,12.9,12.9
2024/01/11 11:50:00,12.9,14.6
2024/01/11 12:00:00,12.7,11.0
2024/01/11 12:10:00,12.5,13.7
2024/01/11 12:20:00,12.5, 9.4
2024/01/11 12:30:00,12.5,13.7
2024/01/11 12:40:00,12.6,16.0
2024/01/11 12:50:00,12.6,16.9
2024/01/11 13:00:00,12.6,18.4
2024/01/11 13:10:00,12.5,19.0
2024/01/11 13:20:00,12.4,18.1
2024/01/11 13:30:00,12.1,17.7
2024/01/11 13:40:00,11.9,17.2
2024/01/11 13:50:00,11.7,15.9
2024/01/11 14:00:00,11.3,14.9
2024/01/11 14:10:00,11.0,15.7
2024/01/11 14:20:00,10.8,16.3
2024/01/11 14:30:00,10.6,16.4
2024/01/11 14:40:00,10.6,16.8
2024/01/11 14:50:00,10.7,18.5
2024/01/11 15:00:00,10.5,15.6
2024/01/11 15:10:00,10.3,13.2
2024/01/11 15:20:00,10.3,13.5
2024/01/11 15:30:00,10.3,12.9
2024/01/11 15:40:00,10.2,12.6
2024/01/11 15:50:00,10.3,10.1
2024/01/11 16:00:00,10.2, 8.6
2024/01/11 16:10:00,10.3, 7.6
2024/01/11 16:20:00,10.2, 6.5
2024/01/11 16:30:00,10.2, 6.1
2024/01/11 16:40:00,10.2, 5.3
2024/01/11 16:50:00,10.2, 3.8
2024/01/11 17:00:00,10.3, 2.3
2024/01/11 17:10:00,10.3, 1.8
2024/01/11 17:20:00,10.3, 1.4
2024/01/11 17:30:00,10.3, 1.2
2024/01/11 17:40:00,10.3, 1.2
2024/01/11 17:50:00,10.3, 1.1
2024/01/11 18:00:00,10.3, 1.1
2024/01/11 18:10:00,10.2, 0.8
2024/01/11 18:20:00,10.3, 0.5
2024/01/11 18:30:00,10.2, 0.6
2024/01/11 18:40:00,10.2, 0.5
2024/01/11 18:50:00,10.2, 0.4
2024/01/11 19:00:00,10.1, 0.2
2024/01/11 19:10:00,10.1,-0.2
2024/01/11 19:20:00,10.2,-0.3
2024/01/11 19:30:00,10.2,-0.4
2024/01/11 19:40:00,10.2,-0.8
2024/01/11 19:50:00,10.2,-0.9
2024/01/11 20:00:00,10.1,-0.7
2024/01/11 20:10:00,10.1,-0.9
2024/01/11 20:20:00,10.2,-0.8
2024/01/11 20:30:00,10.1,-0.8
2024/01/11 20:40:00,10.1,-0.6
2024/01/11 20:50:00,10.2,-0.6
2024/01/11 21:00:00,10.1,-0.5
2024/01/11 21:10:00,10.1,-0.5
2024/01/11 21:20:00,10.1,-0.6
2024/01/11 21:30:00,10.1,-0.6
2024/01/11 21:40:00,10.1,-0.7
2024/01/11 21:50:00,10.1,-0.4
2024/01/11 22:00:00,10.1,-0.1
2024/01/11 22:10:00,10.0, 0.6
2024/01/11 22:20:00,10.0, 0.5
2024/01/11 22:30:00,10.1, 0.9
2024/01/11 22:40:00,10.1, 0.6
2024/01/11 22:50:00,10.0, 0.9
2024/01/11 23:00:00,10.0, 1.0
2024/01/11 23:10:00,10.1, 0.9
2024/01/11 23:20:00,10.0, 1.0
2024/01/11 23:30:00,10.0, 0.9
2024/01/11 23:40:00,10.1, 0.7
2024/01/11 23:50:00,10.1, 0.6
